Regional Weather Roundup
Issued by NWS

Home | Current Version | Previous Version | Graphics & Text | Print | Product List | Glossary On
Versions: 1 2 3 4 5 6 7 8 9 10 11 12 13 14 15 16 17 18 19 20 21 22 23 24 25 26 27
000
ASUS45 KBOI 260710
RWRID

IDAHO REGIONAL WEATHER ROUNDUP
NATIONAL WEATHER SERVICE BOISE ID
100 AM MDT TUE JUL 26 2016

NOTE: "FAIR" INDICATES FEW OR NO CLOUDS BELOW 12000 FEET
WITH NO SIGNIFICANT WEATHER AND/OR OBSTRUCTIONS TO VISIBILITY

IDZ012-014-260800-
SOUTHWEST IDAHO


CITY           SKY/WX    TMP DP  RH WIND       PRES   REMARKS
BOISE          CLEAR     77  31  18 SE6       29.92R
CALDWELL       NOT AVBL
MOUNTAIN HOME  CLEAR     70  29  21 NW3       29.92S
$$

IDZ016-017-260800-
SOUTHCENTRAL IDAHO


CITY           SKY/WX    TMP DP  RH WIND       PRES   REMARKS
BURLEY         CLEAR     60  42  51 SW8       30.02S
JEROME         CLEAR     68  38  33 E6        30.02S
TWIN FALLS     CLEAR     70  26  19 S13       30.02S
$$

IDZ019>023-260800-
SOUTHEAST IDAHO


CITY           SKY/WX    TMP DP  RH WIND       PRES   REMARKS
IDAHO FALLS    CLEAR     62  41  46 W5        30.07R
POCATELLO      CLEAR     58  34  40 N10       30.06R
REXBURG        CLEAR     63  42  46 NE5       30.08R
$$

IDZ006-010-011-018-031-032-260800-
CENTRAL IDAHO MOUNTAINS


CITY           SKY/WX    TMP DP  RH WIND       PRES   REMARKS
MCCALL         CLEAR     66  47  50 NW5       30.13R
HAILEY         CLEAR     66  36  32 NW12      30.15S
STANLEY        NOT AVBL
SALMON         CLEAR     63  45  51 CALM      30.06S
CHALLIS        CLEAR     64  38  38 SE5       30.13R
$$

IDZ002-004-006-007-026-260800-
NORTHERN IDAHO


CITY           SKY/WX    TMP DP  RH WIND       PRES   REMARKS
LEWISTON       CLEAR     79  46  31 W3        29.92R
LOWELL           N/A     64  56  75 N3        29.99R
COEUR D`ALENE  CLEAR     68  57  68 E3        29.96S
MULLAN PASS    CLEAR     65  40  39 N3        30.22S
$$




USA.gov is the U.S. government's official web portal to all federal, state and local government web resources and services.